Location: Crni Vrh Observatory
(45.9460°N, 14.0712°E)
Time: 10:05:44
(UTC+01:00)

Amateur Radio Satellites - All Passes

Search period start: 21 January 2018 09:35
Search period end: 22 January 2018 09:35
Location: Crni Vrh Observatory, 45.9460°N, 14.0712°E

Satellite Date Start Highest point End Downlink Frequencies (MHz)
Time Altitude Azimuth
RS-15 21 Jan 09:36:27 09:48:44 67° 314° (NW) 10:00:47 29.354- 29.394
UWE-3 21 Jan 09:40:08 09:41:10 11° 303° (WNW) 09:42:12 435.000/436.395/437.385
UNISAT 6 21 Jan 09:47:16 09:51:05 28° 266° (W) 09:55:01 437.425
PRISM 21 Jan 09:56:40 10:00:43 84° 256° (WSW) 10:04:48 437.425
O/OREOS (USA 219) 21 Jan 09:58:00 10:02:30 76° 65° (ENE) 10:06:58 437.305
Max Valier Satellite 21 Jan 10:02:39 10:06:24 88° 283° (WNW) 10:10:04 145.860
ZACube-1 21 Jan 10:03:32 10:04:39 11° 303° (WNW) 10:05:46 437.345
POLYITAN 1 21 Jan 10:08:37 10:11:47 21° 64° (ENE) 10:14:57 437.675
AO-73 21 Jan 10:10:34 10:11:20 10° 303° (WNW) 10:12:06 145.935
BEESAT 3 21 Jan 10:15:54 10:19:51 62° 309° (NW) 10:23:50 437.485
EO-88 21 Jan 10:21:13 10:24:51 80° 285° (WNW) 10:28:27 145.990 - 145.960
NANOSAT C BR1 21 Jan 10:23:45 10:27:13 25° 66° (ENE) 10:30:43 145.865
AIST 2D 21 Jan 10:26:49 10:30:20 86° 257° (WSW) 10:33:52 435.315
PCSat 21 Jan 10:31:41 10:37:03 66° 306° (NW) 10:42:29 145.827
QB50P2 21 Jan 10:37:17 10:41:18 43° 70° (ENE) 10:45:21 145.880/145.840
DELFI C3 21 Jan 11:00:14 11:02:38 16° 297° (WNW) 11:05:03 145.870
AO-85 21 Jan 11:01:02 11:03:27 16° 110° (ESE) 11:05:56 145.980
BEESAT 2 21 Jan 11:04:05 11:08:07 72° 308° (NW) 11:12:10 435.950
YUBILEINY 21 Jan 11:06:04 11:14:22 50° 271° (W) 11:22:37 435.215
DUCHIFAT 1 21 Jan 11:06:33 11:10:41 60° 73° (ENE) 11:14:53 145.980
EO-79 21 Jan 11:07:54 11:12:07 82° 76° (ENE) 11:16:24 145.935-145.965
SPROUT 21 Jan 11:16:46 11:17:47 11° 88° (E) 11:18:48 437.525
ESTCUBE 1 21 Jan 11:19:40 11:24:01 47° 99° (E) 11:28:19 437.505/2401.250
Gurwin Techsat 1B 21 Jan 11:21:04 11:24:05 15° 56° (ENE) 11:27:06 435.225
Oscar 19 21 Jan 11:32:31 11:36:35 24° 62° (ENE) 11:40:38 437.125/150
AO-91 21 Jan 11:38:39 11:40:47 16° 64° (ENE) 11:43:00 145.960
O/OREOS (USA 219) 21 Jan 11:39:32 11:41:14 12° 262° (W) 11:42:56 437.305
LO-87 21 Jan 11:39:57 11:43:35 71° 285° (WNW) 11:47:12 145.935 - 145.965
POLYITAN 1 21 Jan 11:43:14 11:47:16 42° 262° (W) 11:51:21 437.675
RS-15 21 Jan 11:53:14 12:04:01 34° 344° (NNW) 12:14:28 29.354- 29.394
BEESAT 3 21 Jan 11:56:25 11:58:10 12° 329° (NNW) 11:59:55 437.485
NANOSAT C BR1 21 Jan 11:58:58 12:02:47 33° 263° (W) 12:06:38 145.865
BUGSAT 1 21 Jan 12:07:15 12:11:17 63° 73° (ENE) 12:15:24 437.445
QB50P2 21 Jan 12:14:14 12:17:17 19° 268° (W) 12:20:22 145.880/145.840
PCSat 21 Jan 12:18:07 12:21:31 17° 328° (NNW) 12:24:56 145.827
AO-85 21 Jan 12:39:19 12:43:17 59° 310° (NW) 12:47:35 145.980
SO-50 21 Jan 12:42:04 12:46:08 28° 41° (NE) 12:50:15 436.795
BEESAT 2 21 Jan 12:44:23 12:46:33 14° 328° (NNW) 12:48:42 435.950
DUCHIFAT 1 21 Jan 12:44:34 12:46:44 14° 270° (W) 12:48:56 145.980
AO-7 21 Jan 12:47:39 12:54:25 29° 51° (NE) 13:01:12 .
EO-79 21 Jan 12:48:16 12:48:27 10° 273° (W) 12:48:39 145.935-145.965
SPROUT 21 Jan 12:49:54 12:54:13 79° 284° (WNW) 12:58:30 437.525
VELOX 1 21 Jan 12:54:35 12:58:57 62° 101° (E) 13:03:19 145.980
ESTCUBE 1 21 Jan 12:57:11 13:00:29 21° 297° (WNW) 13:03:47 437.505/2401.250
Gurwin Techsat 1B 21 Jan 12:57:58 13:03:18 89° 255° (WSW) 13:08:39 435.225
50 SAT 21 Jan 13:08:52 13:10:01 12° 92° (E) 13:11:10 437.505
Oscar 19 21 Jan 13:10:28 13:15:33 53° 260° (W) 13:20:40 437.125/150
DX 1 21 Jan 13:10:48 13:13:55 19° 93° (E) 13:17:00 434.975-435.025
AO-91 21 Jan 13:13:57 13:17:02 32° 263° (W) 13:20:14 145.960
BUGSAT 1 21 Jan 13:45:19 13:47:04 12° 271° (W) 13:48:49 437.445
RS-15 21 Jan 14:10:12 14:20:55 35° 18° (NNE) 14:31:09 29.354- 29.394
M-CUBED/EXP-1 PRIME 21 Jan 14:10:39 14:11:53 11° 55° (NE) 14:13:05 437.505
ITAMSAT 1 21 Jan 14:17:29 14:22:16 40° 67° (ENE) 14:27:05 435.822/435.867
SO-50 21 Jan 14:22:16 14:26:49 50° 240° (WSW) 14:31:26 436.795
AO-85 21 Jan 14:22:33 14:24:41 13° 333° (NNW) 14:26:54 145.980
ITUPSAT 1 21 Jan 14:24:06 14:26:05 12° 88° (E) 14:28:03 437.325
VELOX 1 21 Jan 14:32:15 14:34:56 16° 299° (WNW) 14:37:36 145.980
UKube-1 21 Jan 14:33:26 14:37:47 83° 104° (ESE) 14:42:05 .
AO-7 21 Jan 14:38:00 14:46:22 81° 251° (WSW) 14:54:49 .
50 SAT 21 Jan 14:38:59 14:41:54 37° 288° (WNW) 14:44:47 437.505
Gurwin Techsat 1B 21 Jan 14:41:46 14:43:59 13° 273° (W) 14:46:12 435.225
DX 1 21 Jan 14:46:09 14:50:19 45° 290° (WNW) 14:54:27 434.975-435.025
MOZHAYETS 4 21 Jan 14:50:14 14:54:36 39° 97° (E) 14:58:54
CUBESAT XI-V 21 Jan 14:56:05 14:57:51 12° 87° (E) 14:59:36 437.345
BEESAT 21 Jan 15:01:50 15:06:01 29° 95° (E) 15:10:10 436.000
M-CUBED/EXP-1 PRIME 21 Jan 15:41:24 15:45:44 87° 65° (ENE) 15:49:46 437.505
DOVE 4 21 Jan 15:51:34 15:55:49 73° 75° (ENE) 15:59:59 437.250
PCSat 21 Jan 15:52:41 15:53:45 10° 21° (NNE) 15:54:49 145.827
XW-2B 21 Jan 15:53:45 15:54:40 11° 61° (ENE) 15:55:36 145.730 - 145.750
CUTE-I 21 Jan 15:55:09 15:58:21 16° 57° (ENE) 16:01:32 437.470
ITAMSAT 1 21 Jan 15:57:23 16:01:50 29° 265° (W) 16:06:19 435.822/435.867
ITUPSAT 1 21 Jan 15:59:40 16:04:30 83° 286° (WNW) 16:09:19 437.325
NO-84 21 Jan 16:02:30 16:03:52 12° 130° (SE) 16:05:13 435.350 FM
UKube-1 21 Jan 16:11:26 16:13:09 12° 302° (WNW) 16:14:52 .
HO-68 21 Jan 16:14:37 16:19:35 21° 52° (NE) 16:24:33 435.675
KKS-1 21 Jan 16:18:24 16:20:07 12° 89° (E) 16:21:50 437.445
LilacSat-2 21 Jan 16:20:01 16:23:03 22° 67° (ENE) 16:26:05 437.200
XW-2C 21 Jan 16:21:48 16:24:45 22° 67° (ENE) 16:27:43 145.795 - 145.815
RS-15 21 Jan 16:23:55 16:35:49 73° 49° (NE) 16:47:01 29.354- 29.394
MOZHAYETS 4 21 Jan 16:27:45 16:31:34 25° 295° (WNW) 16:35:20
CUBESAT XI-V 21 Jan 16:31:10 16:35:48 79° 286° (WNW) 16:40:23 437.345
AO-7 21 Jan 16:35:09 16:40:24 18° 272° (W) 16:45:41 .
BEESAT 21 Jan 16:39:27 16:43:49 35° 293° (WNW) 16:48:09 436.000
BEESAT 3 21 Jan 16:53:09 16:56:20 23° 40° (NE) 16:59:28 437.485
KAITUO 1B 21 Jan 16:54:40 16:58:06 34° 70° (ENE) 17:01:31 145.475/437.950
XW-2F 21 Jan 16:56:53 17:00:33 48° 73° (ENE) 17:04:14 145.980 - 146.000
CUTE 1.7 + AOD 2 21 Jan 17:03:49 17:06:59 21° 65° (ENE) 17:10:10 437.475
NUDT-PHONESAT 21 Jan 17:04:42 17:08:14 41° 72° (ENE) 17:11:46 437.300
XW-2D 21 Jan 17:06:49 17:10:37 71° 75° (ENE) 17:14:27 145.860 - 145.880
CUBEBUG 2 21 Jan 17:20:18 17:23:38 21° 63° (ENE) 17:27:03 437.445
XW-2B 21 Jan 17:24:26 17:28:16 75° 258° (WSW) 17:32:06 145.730 - 145.750
UWE-3 21 Jan 17:25:43 17:28:13 15° 60° (ENE) 17:30:44 435.000/436.395/437.385
CUTE-I 21 Jan 17:32:23 17:37:42 84° 255° (WSW) 17:43:03 437.470
DOVE 4 21 Jan 17:32:57 17:34:01 11° 272° (W) 17:35:04 437.250
PCSat 21 Jan 17:34:02 17:38:56 33° 45° (NE) 17:43:48 145.827
NO-84 21 Jan 17:37:38 17:40:40 73° 324° (NW) 17:43:34 435.350 FM
ITUPSAT 1 21 Jan 17:39:38 17:41:33 12° 304° (NW) 17:43:28 437.325
BEESAT 2 21 Jan 17:42:12 17:45:21 21° 39° (NE) 17:48:28 435.950
AO-85 21 Jan 17:48:23 17:49:59 11° 23° (NNE) 17:51:38 145.980
ZACube-1 21 Jan 17:48:37 17:50:52 14° 59° (ENE) 17:53:07 437.345
KKS-1 21 Jan 17:52:45 17:57:12 76° 287° (WNW) 18:01:38 437.445
LilacSat-2 21 Jan 17:53:43 17:57:11 31° 264° (W) 18:00:38 437.200
AO-73 21 Jan 17:55:00 17:57:19 14° 59° (ENE) 17:59:39 145.935
XW-2C 21 Jan 17:55:18 17:58:45 31° 263° (W) 18:02:13 145.795 - 145.815
HO-68 21 Jan 17:59:12 18:06:22 86° 73° (ENE) 18:13:34 435.675
AAUSAT CUBESAT 2 21 Jan 18:05:48 18:09:06 24° 66° (ENE) 18:12:24 437.432
STARS 21 Jan 18:07:16 18:11:40 63° 102° (ESE) 18:16:02 437.465
CUBESAT XI-V 21 Jan 18:11:14 18:12:21 11° 304° (WNW) 18:13:28 437.345
SEEDS 21 Jan 18:24:39 18:28:52 84° 76° (ENE) 18:33:06 437.485
Oscar 11 21 Jan 18:27:01 18:29:55 18° 63° (ENE) 18:32:49 .
KAITUO 1B 21 Jan 18:29:27 18:32:09 19° 267° (W) 18:34:52 145.475/437.950
BEESAT 3 21 Jan 18:30:17 18:34:04 46° 240° (WSW) 18:37:47 437.485
XW-2F 21 Jan 18:32:51 18:34:54 14° 269° (W) 18:36:58 145.980 - 146.000
RS-15 21 Jan 18:37:11 18:47:20 37° 254° (WSW) 18:57:04 29.354- 29.394
CUTE 1.7 + AOD 2 21 Jan 18:38:29 18:42:33 42° 262° (W) 18:46:37 437.475
NUDT-PHONESAT 21 Jan 18:39:59 18:42:15 15° 269° (W) 18:44:31 437.300
XW-2A 21 Jan 18:50:41 18:54:02 56° 74° (ENE) 18:57:25 145.665 - 145.685
CUBEBUG 2 21 Jan 18:55:42 18:59:55 45° 262° (W) 19:04:18 437.445
UWE-3 21 Jan 18:59:37 19:04:02 72° 258° (WSW) 19:08:38 435.000/436.395/437.385
NO-84 21 Jan 19:16:08 19:18:13 18° 345° (NNW) 19:20:15 435.350 FM
CUTE-I 21 Jan 19:16:46 19:18:33 12° 274° (W) 19:20:20 437.470
PCSat 21 Jan 19:17:18 19:22:31 47° 245° (WSW) 19:27:40 145.827
BEESAT 2 21 Jan 19:19:25 19:23:21 54° 239° (WSW) 19:27:13 435.950
ZACube-1 21 Jan 19:22:01 19:26:29 79° 257° (WSW) 19:31:04 437.345
AO-85 21 Jan 19:27:11 19:31:43 38° 45° (NE) 19:36:31 145.980
AO-73 21 Jan 19:28:26 19:32:54 77° 259° (W) 19:37:29 145.935
FO-29 21 Jan 19:28:35 19:32:54 26° 94° (E) 19:37:14 435.910
KKS-1 21 Jan 19:32:47 19:32:57 10° 304° (NW) 19:33:07 437.445
STRAND 1 21 Jan 19:40:34 19:45:44 76° 103° (ESE) 19:50:53 437.568
AAUSAT CUBESAT 2 21 Jan 19:40:38 19:44:23 33° 264° (W) 19:48:09 437.432
STARS 21 Jan 19:44:50 19:47:31 16° 300° (WNW) 19:50:12 437.465
nSIGHT-1 21 Jan 19:48:01 19:50:19 19° 137° (SE) 19:52:38 .
HO-68 21 Jan 19:50:05 19:54:57 19° 271° (W) 19:59:51 435.675
Oscar 11 21 Jan 20:01:24 20:05:39 53° 260° (W) 20:09:57 .
ISS 21 Jan 20:03:32 20:05:53 19° 136° (SE) 20:08:15 437.550
DELFI C3 21 Jan 20:11:38 20:15:15 37° 70° (ENE) 20:18:52 145.870
Max Valier Satellite 21 Jan 20:43:05 20:46:45 56° 74° (ENE) 20:50:26 145.860
NO-84 21 Jan 20:54:34 20:56:14 14° 7° (N) 20:57:54 435.350 FM
EO-88 21 Jan 21:00:25 21:04:01 59° 73° (ENE) 21:07:38 145.990 - 145.960
AO-85 21 Jan 21:07:35 21:12:12 39° 242° (WSW) 21:17:02 145.980
FO-29 21 Jan 21:13:21 21:18:14 41° 293° (WNW) 21:23:07 435.910
TIGRISAT 21 Jan 21:20:02 21:24:20 34° 96° (E) 21:28:36 435.000
STRAND 1 21 Jan 21:21:04 21:24:18 17° 302° (WNW) 21:27:33 437.568
nSIGHT-1 21 Jan 21:23:02 21:26:11 71° 335° (NNW) 21:29:22 .
UNISAT 6 21 Jan 21:35:19 21:39:57 52° 99° (E) 21:44:31 437.425
PRISM 21 Jan 21:37:44 21:38:39 11° 89° (E) 21:39:33 437.425
ISS 21 Jan 21:38:48 21:42:04 74° 335° (NNW) 21:45:20 437.550
DELFI C3 21 Jan 21:47:19 21:50:07 19° 268° (W) 21:52:55 145.870
SPROUT 21 Jan 22:12:08 22:13:56 12° 59° (ENE) 22:15:43 437.525
YUBILEINY 21 Jan 22:13:21 22:21:25 42° 86° (E) 22:29:28 435.215
LO-87 21 Jan 22:17:33 22:21:03 62° 75° (ENE) 22:24:38 145.935 - 145.965
Max Valier Satellite 21 Jan 22:19:30 22:20:54 12° 271° (W) 22:22:18 145.860
ESTCUBE 1 21 Jan 22:21:05 22:25:31 58° 72° (ENE) 22:29:58 437.505/2401.250
NO-84 21 Jan 22:31:21 22:34:00 36° 27° (NNE) 22:36:43 435.350 FM
EO-88 21 Jan 22:37:09 22:38:00 11° 271° (W) 22:38:51 145.990 - 145.960
EO-79 21 Jan 22:52:11 22:53:32 11° 88° (E) 22:54:53 145.935-145.965
TIGRISAT 21 Jan 22:56:50 23:00:55 30° 294° (WNW) 23:04:59 435.000
nSIGHT-1 21 Jan 22:59:53 23:02:42 29° 354° (N) 23:05:32 .
PRISM 21 Jan 23:10:18 23:14:24 73° 285° (WNW) 23:18:27 437.425
UNISAT 6 21 Jan 23:12:48 23:16:17 21° 297° (WNW) 23:19:44 437.425
ISS 21 Jan 23:15:56 23:18:53 30° 354° (N) 23:21:50 437.550
AIST 2D 21 Jan 23:22:01 23:25:31 83° 105° (ESE) 23:28:58 435.315
POLYITAN 1 21 Jan 23:25:32 23:29:08 25° 94° (E) 23:32:43 437.675
NANOSAT C BR1 21 Jan 23:40:16 23:44:07 31° 96° (E) 23:47:55 145.865
SPROUT 21 Jan 23:44:57 23:49:12 78° 259° (W) 23:53:29 437.525
VELOX 1 21 Jan 23:53:43 23:58:05 74° 75° (ENE) 00:02:29 145.980
QB50P2 21 Jan 23:54:53 23:59:07 58° 100° (E) 00:03:20 145.880/145.840
UKube-1 21 Jan 23:57:10 23:58:42 12° 58° (ENE) 00:00:14 .
ESTCUBE 1 21 Jan 23:59:51 00:02:41 16° 270° (W) 00:05:30 437.505/2401.250
DX 1 22 Jan 00:08:29 00:11:54 23° 64° (ENE) 00:15:20 434.975-435.025
NO-84 22 Jan 00:08:39 00:11:03 24° 225° (SW) 00:13:32 435.350 FM
YUBILEINY 22 Jan 00:09:38 00:18:07 49° 288° (WNW) 00:26:35 435.215
O/OREOS (USA 219) 22 Jan 00:12:34 00:16:57 55° 110° (ESE) 00:21:21 437.305
DUCHIFAT 1 22 Jan 00:23:14 00:27:32 79° 104° (ESE) 00:31:47 145.980
EO-79 22 Jan 00:25:30 00:29:48 75° 285° (WNW) 00:34:04 145.935-145.965
nSIGHT-1 22 Jan 00:36:25 00:39:24 36° 14° (NNE) 00:42:23 .
ISS 22 Jan 00:52:49 00:55:54 36° 14° (NNE) 00:58:58 437.550
AO-91 22 Jan 00:59:11 01:03:16 34° 97° (E) 01:07:43 145.960
POLYITAN 1 22 Jan 01:01:04 01:04:56 33° 292° (WNW) 01:08:47 437.675
50 SAT 22 Jan 01:04:55 01:07:59 79° 78° (ENE) 01:11:06 437.505
Gurwin Techsat 1B 22 Jan 01:12:02 01:16:40 30° 95° (E) 01:21:17 435.225
NANOSAT C BR1 22 Jan 01:16:07 01:19:42 27° 294° (WNW) 01:23:17 145.865
Oscar 19 22 Jan 01:19:25 01:24:23 44° 98° (E) 01:29:17 437.125/150
BUGSAT 1 22 Jan 01:21:22 01:25:38 79° 101° (ESE) 01:29:53 437.445
UKube-1 22 Jan 01:29:45 01:34:03 86° 253° (WSW) 01:38:22 .
QB50P2 22 Jan 01:31:48 01:34:28 16° 298° (WNW) 01:37:07 145.880/145.840
ITUPSAT 1 22 Jan 01:32:25 01:35:55 21° 61° (ENE) 01:39:27 437.325
VELOX 1 22 Jan 01:33:21 01:35:02 12° 271° (W) 01:36:43 145.980
DX 1 22 Jan 01:43:51 01:47:53 38° 262° (W) 01:51:56 434.975-435.025
O/OREOS (USA 219) 22 Jan 01:53:22 01:56:42 20° 309° (NW) 02:00:02 437.305
MOZHAYETS 4 22 Jan 01:54:03 01:58:31 49° 71° (ENE) 02:03:00
DUCHIFAT 1 22 Jan 02:00:47 02:02:34 12° 301° (WNW) 02:04:20 145.980
CUBESAT XI-V 22 Jan 02:01:05 02:04:09 18° 61° (ENE) 02:07:14 437.345
BEESAT 22 Jan 02:10:14 02:14:46 44° 69° (ENE) 02:19:18 436.000
nSIGHT-1 22 Jan 02:12:34 02:15:41 57° 213° (SSW) 02:18:49 .
YUBILEINY 22 Jan 02:15:24 02:17:38 11° 314° (NW) 02:19:53 435.215
ISS 22 Jan 02:29:16 02:32:31 60° 213° (SSW) 02:35:45 437.550
ITAMSAT 1 22 Jan 02:30:20 02:31:32 11° 86° (E) 02:32:44 435.822/435.867
AO-91 22 Jan 02:35:49 02:39:38 29° 292° (WNW) 02:43:48 145.960
AO-7 22 Jan 02:37:26 02:44:32 30° 94° (E) 02:51:33 .
Gurwin Techsat 1B 22 Jan 02:51:45 02:56:43 41° 293° (WNW) 03:01:39 435.225
BUGSAT 1 22 Jan 02:58:34 03:00:23 13° 301° (WNW) 03:02:11 437.445
Oscar 19 22 Jan 02:59:10 03:03:29 27° 297° (WNW) 03:07:46 437.125/150
ITUPSAT 1 22 Jan 03:08:42 03:13:22 54° 259° (W) 03:18:05 437.325
KKS-1 22 Jan 03:18:21 03:21:07 17° 60° (ENE) 03:23:53 437.445
MOZHAYETS 4 22 Jan 03:32:34 03:35:56 20° 268° (W) 03:39:19
CUBESAT XI-V 22 Jan 03:36:24 03:41:03 62° 259° (W) 03:45:43 437.345
DOVE 4 22 Jan 03:48:09 03:50:49 16° 91° (E) 03:53:33 437.250
BEESAT 22 Jan 03:48:58 03:52:43 23° 267° (W) 03:56:30 436.000
FALCONSAT 3 22 Jan 03:59:55 04:01:09 11° 165° (SSE) 04:02:23 435.103
ITAMSAT 1 22 Jan 04:06:34 04:11:48 81° 104° (ESE) 04:17:01 435.822/435.867
AO-7 22 Jan 04:29:35 04:37:55 70° 294° (WNW) 04:46:09 .
SO-50 22 Jan 04:39:02 04:42:50 28° 115° (ESE) 04:46:41 436.795
M-CUBED/EXP-1 PRIME 22 Jan 04:51:54 04:54:58 33° 103° (ESE) 04:57:57 437.505
KKS-1 22 Jan 04:52:51 04:57:12 61° 258° (WSW) 05:01:36 437.445
STARS 22 Jan 05:05:47 05:10:08 75° 74° (ENE) 05:14:31 437.465
STRAND 1 22 Jan 05:21:34 05:25:16 21° 60° (ENE) 05:28:58 437.568
LilacSat-2 22 Jan 05:24:22 05:27:23 22° 94° (E) 05:30:23 437.200
DOVE 4 22 Jan 05:24:34 05:28:49 56° 287° (WNW) 05:33:17 437.250
XW-2C 22 Jan 05:25:20 05:28:15 21° 93° (E) 05:31:07 145.795 - 145.815
HO-68 22 Jan 05:26:36 05:29:58 14° 85° (E) 05:33:19 435.675
FALCONSAT 3 22 Jan 05:37:05 05:39:25 16° 180° (S) 05:41:45 435.103
FO-29 22 Jan 05:44:10 05:48:36 20° 59° (ENE) 05:52:44 435.910
CUTE-I 22 Jan 05:47:08 05:51:52 32° 96° (E) 05:56:36 437.470
ITAMSAT 1 22 Jan 05:47:26 05:50:38 17° 303° (WNW) 05:53:49 435.822/435.867
KAITUO 1B 22 Jan 05:56:42 06:00:04 33° 97° (E) 06:03:25 145.475/437.950
XW-2F 22 Jan 06:00:07 06:03:46 48° 99° (E) 06:07:22 145.980 - 146.000
NUDT-PHONESAT 22 Jan 06:05:39 06:09:08 39° 98° (E) 06:12:35 437.300
SEEDS 22 Jan 06:07:52 06:09:21 12° 88° (E) 06:10:51 437.485
XW-2D 22 Jan 06:10:41 06:14:27 75° 101° (ESE) 06:18:11 145.860 - 145.880
SO-50 22 Jan 06:18:53 06:23:08 41° 314° (NW) 06:27:28 436.795
CUTE 1.7 + AOD 2 22 Jan 06:20:51 06:24:27 27° 94° (E) 06:28:00 437.475
AO-7 22 Jan 06:23:44 06:29:14 20° 316° (NW) 06:34:44 .
M-CUBED/EXP-1 PRIME 22 Jan 06:26:57 06:29:09 16° 302° (WNW) 06:31:18 437.505
XW-2B 22 Jan 06:28:22 06:32:07 70° 286° (WNW) 06:35:50 145.730 - 145.750
CUBEBUG 2 22 Jan 06:43:39 06:47:59 33° 95° (E) 06:52:16 437.445
STARS 22 Jan 06:45:28 06:47:00 12° 271° (W) 06:48:31 437.465
UWE-3 22 Jan 06:47:15 06:50:49 21° 91° (E) 06:54:20 435.000/436.395/437.385
RS-15 22 Jan 06:50:30 07:01:01 35° 105° (ESE) 07:11:24 29.354- 29.394
LilacSat-2 22 Jan 06:58:22 07:01:41 29° 291° (WNW) 07:04:57 437.200
STRAND 1 22 Jan 06:58:58 07:04:00 60° 259° (WSW) 07:09:04 437.568
XW-2C 22 Jan 06:59:07 07:02:27 30° 291° (WNW) 07:05:45 145.795 - 145.815
ZACube-1 22 Jan 07:08:42 07:11:53 18° 90° (E) 07:15:00 437.345
HO-68 22 Jan 07:11:43 07:18:54 74° 105° (ESE) 07:26:03 435.675
AO-73 22 Jan 07:14:46 07:17:56 18° 90° (E) 07:21:04 145.935
FALCONSAT 3 22 Jan 07:16:24 07:17:41 11° 195° (SSW) 07:18:57 435.103
AAUSAT CUBESAT 2 22 Jan 07:19:47 07:23:23 29° 95° (E) 07:27:00 437.432
FO-29 22 Jan 07:26:24 07:33:11 81° 256° (WSW) 07:39:10 435.910
CUTE-I 22 Jan 07:27:03 07:31:57 38° 294° (WNW) 07:36:50 437.470
KAITUO 1B 22 Jan 07:31:09 07:33:50 19° 294° (WNW) 07:36:29 145.475/437.950
XW-2F 22 Jan 07:35:24 07:37:28 14° 297° (WNW) 07:39:32 145.980 - 146.000
NUDT-PHONESAT 22 Jan 07:40:18 07:42:39 16° 296° (WNW) 07:44:59 437.300
SEEDS 22 Jan 07:41:21 07:45:30 68° 286° (WNW) 07:49:37 437.485
XW-2A 22 Jan 07:42:10 07:45:22 40° 99° (E) 07:48:31 145.665 - 145.685
Oscar 11 22 Jan 07:46:28 07:49:57 23° 93° (E) 07:53:24 .
XW-2D 22 Jan 07:47:29 07:48:02 10° 300° (WNW) 07:48:34 145.860 - 145.880
CUTE 1.7 + AOD 2 22 Jan 07:56:34 08:00:15 30° 292° (WNW) 08:03:55 437.475
SO-50 22 Jan 08:03:11 08:04:50 12° 337° (NNW) 08:06:30 436.795
YUBILEINY 22 Jan 08:20:16 08:27:03 24° 60° (ENE) 08:33:45 435.215
CUBEBUG 2 22 Jan 08:20:20 08:24:30 31° 293° (WNW) 08:28:39 437.445
PCSat 22 Jan 08:20:28 08:23:29 15° 104° (ESE) 08:26:29 145.827
TIGRISAT 22 Jan 08:20:48 08:24:54 37° 69° (ENE) 08:29:07 435.000
BEESAT 3 22 Jan 08:22:58 08:25:07 14° 111° (ESE) 08:27:18 437.485
UWE-3 22 Jan 08:22:59 08:27:29 46° 289° (WNW) 08:31:53 435.000/436.395/437.385
PRISM 22 Jan 08:29:10 08:30:41 12° 59° (ENE) 08:32:13 437.425
UNISAT 6 22 Jan 08:36:07 08:40:29 58° 72° (ENE) 08:44:59 437.425
O/OREOS (USA 219) 22 Jan 08:41:21 08:44:48 21° 52° (NE) 08:48:15 437.305
ZACube-1 22 Jan 08:44:00 08:48:27 51° 288° (WNW) 08:52:48 437.345
AO-73 22 Jan 08:50:03 08:54:27 50° 289° (WNW) 08:58:46 145.935
AAUSAT CUBESAT 2 22 Jan 08:55:19 08:58:45 26° 293° (WNW) 09:02:10 437.432
RS-15 22 Jan 09:00:07 09:12:30 79° 308° (NW) 09:24:40 29.354- 29.394
HO-68 22 Jan 09:00:19 09:06:00 27° 305° (NW) 09:11:41 435.675
BEESAT 2 22 Jan 09:14:07 09:16:04 13° 110° (ESE) 09:18:01 435.950
FO-29 22 Jan 09:15:48 09:18:56 14° 272° (W) 09:21:55 435.910
XW-2A 22 Jan 09:15:58 09:17:42 14° 296° (WNW) 09:19:26 145.665 - 145.685
DELFI C3 22 Jan 09:20:00 09:23:45 43° 98° (E) 09:27:31 145.870
Oscar 11 22 Jan 09:22:11 09:26:10 36° 291° (WNW) 09:30:07 .
